TimeMST,TemperatureF,Dew PointF,Humidity,Sea Level PressureIn,VisibilityMPH,Wind Direction,Wind SpeedMPH,Gust SpeedMPH,PrecipitationIn,Events,Conditions,WindDirDegrees,DateUTC
12:15 AM,35.6,23.0,60,30.15,10.0,West,16.1,-,N/A,,Clear,260,2012-11-17 07:15:00
12:35 AM,35.6,24.8,65,30.14,10.0,WSW,24.2,-,N/A,,Clear,250,2012-11-17 07:35:00
12:55 AM,35.6,24.8,65,30.14,10.0,WSW,23.0,-,N/A,,Clear,240,2012-11-17 07:55:00
1:15 AM,35.6,23.0,60,30.14,10.0,WSW,23.0,-,N/A,,Clear,240,2012-11-17 08:15:00
1:35 AM,35.6,23.0,60,30.14,10.0,WSW,25.3,-,N/A,,Clear,240,2012-11-17 08:35:00
1:55 AM,35.6,23.0,60,30.13,10.0,WSW,24.2,28.8,N/A,,Clear,240,2012-11-17 08:55:00
2:15 AM,35.6,23.0,60,30.14,10.0,WSW,19.6,26.5,N/A,,Clear,240,2012-11-17 09:15:00
2:35 AM,35.6,23.0,60,30.15,10.0,SW,11.5,-,N/A,,Clear,220,2012-11-17 09:35:00
2:55 AM,33.8,23.0,65,30.15,10.0,SSW,8.1,-,N/A,,Clear,200,2012-11-17 09:55:00
3:15 AM,33.8,23.0,65,30.15,10.0,SSE,5.8,-,N/A,,Clear,150,2012-11-17 10:15:00
3:35 AM,33.8,23.0,65,30.14,10.0,South,11.5,-,N/A,,Clear,190,2012-11-17 10:35:00
3:55 AM,33.8,23.0,65,30.14,10.0,SSW,18.4,-,N/A,,Clear,210,2012-11-17 10:55:00
4:15 AM,33.8,23.0,65,30.14,10.0,SSW,13.8,-,N/A,,Clear,200,2012-11-17 11:15:00
4:35 AM,33.8,23.0,65,30.13,10.0,South,17.3,-,N/A,,Clear,180,2012-11-17 11:35:00
4:55 AM,32.0,23.0,69,30.13,10.0,South,15.0,-,N/A,,Clear,180,2012-11-17 11:55:00
5:15 AM,33.8,23.0,65,30.14,10.0,South,18.4,24.2,N/A,,Clear,190,2012-11-17 12:15:00
5:35 AM,33.8,23.0,65,30.14,10.0,South,13.8,24.2,N/A,,Clear,170,2012-11-17 12:35:00
5:55 AM,32.0,23.0,69,30.14,10.0,South,13.8,-,N/A,,Clear,170,2012-11-17 12:55:00
6:15 AM,32.0,24.8,75,30.15,10.0,SSE,8.1,-,N/A,,Clear,150,2012-11-17 13:15:00
6:35 AM,33.8,23.0,65,30.15,10.0,SSW,12.7,-,N/A,,Clear,200,2012-11-17 13:35:00
6:55 AM,33.8,23.0,65,30.16,10.0,South,10.4,-,N/A,,Clear,170,2012-11-17 13:55:00
7:15 AM,33.8,23.0,65,30.16,10.0,South,11.5,21.9,N/A,,Clear,190,2012-11-17 14:15:00
7:35 AM,32.0,23.0,69,30.16,10.0,SSE,9.2,-,N/A,,Clear,160,2012-11-17 14:35:00
8:15 AM,32.0,24.8,75,30.17,10.0,SE,9.2,-,N/A,,Clear,140,2012-11-17 15:15:00
8:35 AM,32.0,24.8,75,30.17,10.0,SSE,9.2,-,N/A,,Clear,160,2012-11-17 15:35:00
8:55 AM,32.0,24.8,75,30.18,10.0,SSE,9.2,-,N/A,,Clear,160,2012-11-17 15:55:00
9:15 AM,32.0,26.6,80,30.17,10.0,SE,8.1,-,N/A,,Clear,140,2012-11-17 16:15:00
9:35 AM,32.0,26.6,80,30.16,10.0,SE,13.8,-,N/A,,Clear,140,2012-11-17 16:35:00
9:55 AM,32.0,26.6,80,30.17,10.0,SE,12.7,-,N/A,,Clear,140,2012-11-17 16:55:00
11:15 AM,33.8,26.6,75,30.17,10.0,SE,10.4,-,N/A,,Clear,140,2012-11-17 18:15:00
11:35 AM,33.8,26.6,75,30.16,10.0,SE,11.5,-,N/A,,Clear,140,2012-11-17 18:35:00
11:55 AM,33.8,26.6,75,30.15,10.0,SE,12.7,-,N/A,,Clear,140,2012-11-17 18:55:00
12:15 PM,33.8,26.6,75,30.14,10.0,SE,11.5,-,N/A,,Clear,130,2012-11-17 19:15:00
12:35 PM,35.6,26.6,70,30.14,10.0,SE,12.7,-,N/A,,Clear,130,2012-11-17 19:35:00
12:55 PM,35.6,26.6,70,30.13,10.0,SE,15.0,-,N/A,,Clear,130,2012-11-17 19:55:00
1:15 PM,35.6,26.6,70,30.13,10.0,SE,12.7,-,N/A,,Clear,130,2012-11-17 20:15:00
1:35 PM,35.6,26.6,70,30.12,10.0,SE,15.0,-,N/A,,Clear,140,2012-11-17 20:35:00
1:55 PM,35.6,26.6,70,30.12,10.0,SE,11.5,-,N/A,,Clear,140,2012-11-17 20:55:00
2:15 PM,37.4,26.6,65,30.13,10.0,SE,13.8,-,N/A,,Clear,140,2012-11-17 21:15:00
2:35 PM,37.4,26.6,65,30.12,10.0,SE,12.7,-,N/A,,Clear,130,2012-11-17 21:35:00
2:55 PM,37.4,23.0,56,30.12,10.0,SE,11.5,-,N/A,,Clear,130,2012-11-17 21:55:00
3:15 PM,37.4,26.6,65,30.12,10.0,SE,12.7,-,N/A,,Clear,130,2012-11-17 22:15:00
3:35 PM,37.4,26.6,65,30.12,10.0,SE,10.4,-,N/A,,Clear,140,2012-11-17 22:35:00
3:55 PM,37.4,26.6,65,30.11,10.0,SSE,10.4,-,N/A,,Clear,150,2012-11-17 22:55:00
4:15 PM,37.4,28.4,70,30.11,10.0,SE,10.4,-,N/A,,Clear,130,2012-11-17 23:15:00
4:35 PM,37.4,28.4,70,30.11,10.0,SE,9.2,-,N/A,,Clear,130,2012-11-17 23:35:00
4:55 PM,37.4,28.4,70,30.10,10.0,ESE,11.5,-,N/A,,Clear,120,2012-11-17 23:55:00
5:35 PM,35.6,30.2,81,30.09,10.0,SE,15.0,-,N/A,,Clear,130,2012-11-18 00:35:00
5:55 PM,35.6,30.2,81,30.08,10.0,SE,17.3,-,N/A,,Clear,130,2012-11-18 00:55:00
6:15 PM,35.6,30.2,81,30.08,10.0,SE,17.3,-,N/A,,Clear,140,2012-11-18 01:15:00
6:35 PM,35.6,30.2,81,30.08,10.0,SE,20.7,-,N/A,,Clear,140,2012-11-18 01:35:00
6:55 PM,35.6,30.2,81,30.08,10.0,SE,17.3,-,N/A,,Clear,130,2012-11-18 01:55:00
7:15 PM,35.6,30.2,81,30.07,10.0,SE,17.3,-,N/A,,Clear,130,2012-11-18 02:15:00
7:35 PM,33.8,30.2,87,30.07,10.0,SE,17.3,-,N/A,,Clear,130,2012-11-18 02:35:00
7:55 PM,33.8,30.2,87,30.07,10.0,SE,13.8,-,N/A,,Clear,130,2012-11-18 02:55:00
8:15 PM,33.8,30.2,87,30.06,10.0,SE,12.7,18.4,N/A,,Scattered Clouds,130,2012-11-18 03:15:00
8:35 PM,33.8,30.2,87,30.07,10.0,ESE,8.1,-,N/A,,Scattered Clouds,110,2012-11-18 03:35:00
8:55 PM,35.6,30.2,81,30.06,10.0,SE,9.2,-,N/A,,Clear,130,2012-11-18 03:55:00
9:15 PM,33.8,30.2,87,30.05,10.0,SE,13.8,-,N/A,,Scattered Clouds,130,2012-11-18 04:15:00
9:35 PM,33.8,30.2,87,30.06,10.0,SE,9.2,-,N/A,,Clear,140,2012-11-18 04:35:00
9:55 PM,33.8,30.2,87,30.04,10.0,SE,10.4,-,N/A,,Clear,130,2012-11-18 04:55:00
10:15 PM,33.8,30.2,87,30.03,10.0,SE,16.1,-,N/A,,Clear,130,2012-11-18 05:15:00
10:35 PM,33.8,30.2,87,30.02,10.0,SE,17.3,-,N/A,,Clear,130,2012-11-18 05:35:00
10:55 PM,32.0,30.2,93,30.02,10.0,ESE,18.4,-,N/A,,Clear,120,2012-11-18 05:55:00
11:15 PM,32.0,30.2,93,30.02,10.0,SE,13.8,18.4,N/A,,Clear,140,2012-11-18 06:15:00
11:35 PM,32.0,30.2,93,30.01,10.0,SE,13.8,-,N/A,,Clear,130,2012-11-18 06:35:00
11:55 PM,32.0,30.2,93,30.01,10.0,SE,18.4,-,N/A,,Clear,130,2012-11-18 06:55:00